This is the latest recevied weather packets stored in our database for station/object EA1AHA-13. If no packets are shown the sender has not sent any weather packets the latest 10 day(s).
| Time | Temp. | Humidity | Pressure | Rain* | Wind** | Luminosity | Snow |
|---|---|---|---|---|---|---|---|
| 1777731965 | 14.44° C | 96% | 1013.9 hPa | 9.14 mm | - | - | - |
| 1777731390 | 15° C | 95% | 1013.7 hPa | 8.64 mm | - | - | - |
| 1777730765 | 15° C | 94% | 1014 hPa | 5.33 mm | - | - | - |
| 1777730190 | 15° C | 93% | 1014 hPa | 2.03 mm | - | - | - |
| 1777729565 | 15° C | 92% | 1013.5 hPa | 0 mm | - | - | - |
| 1777728989 | 15° C | 91% | 1013.2 hPa | 0 mm | - | - | - |
| 1777728365 | 15.56° C | 89% | 1013.5 hPa | 0 mm | - | - | - |
| 1777727790 | 16.11° C | 87% | 1013.4 hPa | 0 mm | - | - | - |
| 1777727165 | 16.11° C | 85% | 1013.3 hPa | 0 mm | - | - | - |
| 1777726589 | 16.67° C | 83% | 1013.3 hPa | 0 mm | - | - | - |
| 1777725965 | 16.67° C | 85% | 1013.1 hPa | 0 mm | - | - | - |
| 1777725390 | 16.67° C | 85% | 1013.3 hPa | 0 mm | - | - | - |
| 1777724765 | 16.67° C | 85% | 1013.1 hPa | 0 mm | - | - | - |
| 1777724189 | 16.11° C | 85% | 1013.4 hPa | 0 mm | - | - | - |
| 1777723569 | 16.11° C | 88% | 1013.5 hPa | 0 mm | - | - | - |
| 1777722990 | 16.11° C | 87% | 1013.4 hPa | 0 mm | - | - | - |
| 1777722365 | 16.11° C | 87% | 1013.6 hPa | 0 mm | - | - | - |
| 1777721789 | 16.11° C | 87% | 1013.7 hPa | 0 mm | - | - | - |
| 1777721166 | 16.11° C | 88% | 1014.1 hPa | 0 mm | - | - | - |
| 1777720589 | 16.11° C | 88% | 1014.1 hPa | 0 mm | - | - | - |
| 1777719965 | 16.67° C | 86% | 1014 hPa | 0 mm | - | - | - |
| 1777719389 | 16.67° C | 85% | 1014 hPa | 0 mm | - | - | - |
| 1777718766 | 16.67° C | 85% | 1014.1 hPa | 0 mm | - | - | - |
| 1777718189 | 16.67° C | 85% | 1014 hPa | 0 mm | - | - | - |
| 1777717692 | 16.67° C | 86% | 1014.2 hPa | 0 mm | - | - | - |
* Rain latest hour (hover to see other rain measurements)
** Current wind speed in m/s (hover to see current wind gust speed)